Theta_e
302 303 303 304 304 305 305 306 306 306 307 307 308 309 310 309 309 311 314 313 317 323 323 324 325 331 332 334 340 339 342 342 342 344 341 341 342 342 342 338 342 340 340 336 338 340 341 343 344 344 348 343 345 347
302 303 305 305 305 306 306 306 306 307 307 308 308 307 309 310 309 310 314 313 314 318 322 321 321 323 325 327 331 331 339 337 344 347 345 346 343 345 342 337 344 343 341 346 344 347 347 344 346 344 341 344 344 344
302 302 302 303 304 305 306 306 307 307 307 308 308 308 310 310 309 309 312 313 314 317 319 320 321 319 316 318 324 330 331 337 340 339 341 343 347 343 343 341 344 345 342 342 346 346 346 344 341 340 340 342 342 343
301 301 301 302 303 304 306 307 307 307 308 309 309 309 309 310 309 309 312 314 313 318 322 329 327 328 327 322 319 323 329 335 336 337 338 339 339 338 340 344 344 344 343 343 343 346 344 341 341 341 341 341 342 343
301 301 301 302 303 303 304 304 305 307 308 308 308 309 310 310 309 310 311 312 312 318 327 326 324 326 325 325 325 321 323 329 333 335 337 337 338 339 340 341 342 342 343 344 346 344 346 345 341 339 340 341 341 342
301 301 301 301 303 303 304 304 305 308 309 308 309 309 310 310 309 312 320 314 312 313 322 329 326 325 328 327 328 327 326 328 331 333 334 337 337 342 343 341 341 339 340 342 347 343 343 340 339 338 339 337 337 337
301 300 301 301 303 303 305 306 306 309 308 309 310 309 309 309 310 318 324 318 313 314 325 328 329 330 328 329 330 331 328 330 332 333 334 334 338 337 339 340 345 341 340 341 342 341 343 340 341 336 335 333 332 333
302 301 301 302 303 305 306 306 308 308 309 310 309 312 316 309 310 316 316 313 314 319 323 327 328 332 329 332 333 330 332 332 332 333 333 334 337 338 339 342 342 339 339 341 340 338 340 337 335 333 330 329 330 330
302 301 302 304 305 305 307 308 308 309 311 309 309 313 313 316 319 320 315 314 315 320 328 326 331 335 331 333 333 332 332 333 331 333 333 334 335 338 337 345 342 340 341 340 336 334 332 330 330 330 329 329 329 330
301 301 303 305 306 306 309 308 308 311 310 308 312 320 323 318 312 313 316 323 323 324 325 327 324 331 331 333 333 334 333 335 334 332 334 334 334 342 342 342 341 338 337 335 334 331 329 328 328 329 329 328 329 330
301 302 305 306 306 307 309 308 309 311 312 313 314 317 313 313 317 322 326 328 327 328 326 324 324 324 324 333 334 333 333 333 334 334 333 332 335 339 340 341 338 336 333 331 328 327 326 326 328 328 328 327 328 329
301 302 305 306 307 309 308 308 310 310 311 310 309 310 314 321 323 326 327 327 329 330 331 332 332 329 323 327 331 332 333 331 332 331 333 332 339 341 339 337 336 333 328 326 325 326 325 326 325 326 327 326 326 327
301 302 305 306 308 308 308 311 310 308 307 311 313 321 322 321 325 324 323 327 329 329 328 327 331 330 328 327 329 331 332 332 329 331 330 333 342 339 337 334 330 327 326 327 327 326 326 325 325 325 325 325 325 325
302 303 305 308 307 308 311 311 311 308 311 318 324 322 326 324 323 325 326 327 327 327 327 328 329 330 328 328 329 330 329 329 328 328 330 334 341 339 335 331 327 327 328 328 329 329 329 329 328 327 325 325 325 326
302 304 307 308 308 311 311 311 311 310 314 319 324 323 323 322 323 323 324 325 325 325 326 329 329 330 331 329 329 329 328 328 327 328 330 338 339 337 333 329 328 329 329 330 329 329 328 328 328 327 326 326 327 327
303 307 309 308 311 312 311 311 310 314 318 322 322 321 320 319 320 321 323 324 323 324 324 327 328 327 328 326 331 330 327 328 329 334 336 337 336 335 333 329 329 329 330 329 330 329 328 327 328 327 327 327 327 327
304 309 309 310 311 312 311 313 317 321 322 321 322 321 322 322 324 325 324 325 322 324 326 325 325 326 325 326 325 330 335 336 334 335 334 335 336 335 333 331 331 330 330 330 330 329 328 327 327 327 328 328 327 327
306 308 310 311 310 311 314 317 321 321 321 320 321 322 323 323 324 324 323 323 324 324 323 325 324 327 328 328 329 329 330 329 332 334 333 334 334 334 332 333 331 330 330 329 328 327 326 326 326 327 326 326 326 325
305 308 310 311 311 311 317 320 321 322 320 320 321 321 323 322 320 319 321 320 322 322 324 324 326 326 326 327 327 327 329 330 332 331 332 331 330 331 330 330 330 329 328 327 326 325 325 326 327 326 325 325 321 321
310 310 311 311 312 317 319 320 318 322 323 322 321 322 322 322 319 319 320 319 323 324 325 326 325 325 327 324 323 324 324 328 331 332 330 330 328 328 328 327 327 327 327 326 326 324 325 325 326 327 327 324 321 322
311 312 311 313 316 317 320 321 322 321 321 322 321 323 323 322 320 319 319 319 323 321 321 320 321 322 319 319 319 321 326 326 331 333 331 328 326 325 325 325 325 325 325 325 325 325 322 324 324 326 326 325 322 321
312 311 314 315 318 319 320 320 321 321 321 323 323 323 323 324 324 322 320 322 321 320 320 321 321 321 323 323 323 324 325 324 322 321 321 321 324 324 324 324 324 324 324 324 324 325 325 325 325 325 325 325 322 322
311 312 316 316 319 317 319 318 324 323 324 324 323 323 323 323 324 319 324 324 322 321 319 319 321 321 323 323 323 324 322 320 322 321 322 322 324 324 324 325 325 325 326 325 325 325 324 321 322 326 324 323 322 320
311 314 318 320 319 320 320 322 322 322 322 322 323 323 323 323 322 324 325 326 326 325 324 323 324 325 324 324 327 323 322 320 320 321 319 319 322 323 324 323 322 323 322 323 324 323 323 322 322 324 323 322 321 320
313 316 317 313 319 321 321 321 321 321 321 322 323 324 324 322 322 323 326 326 326 326 326 326 325 325 326 326 326 323 324 322 321 321 320 317 316 316 317 318 320 322 322 318 319 320 319 320 320 320 320 320 320 320
317 319 319 321 321 322 322 323 323 323 322 322 322 322 324 321 322 323 324 326 326 325 325 324 324 326 327 324 324 324 322 321 319 319 319 316 315 315 315 316 316 316 317 317 316 316 315 315 314 314 314 314 313 313
319 322 320 318 320 321 322 322 322 323 322 323 324 323 323 322 323 325 324 323 323 322 322 322 322 323 324 323 322 321 320 320 319 318 318 317 317 316 316 316 316 315 315 316 316 316 315 315 315 315 315 315 315 315
320 321 323 322 322 321 323 323 323 323 323 322 323 323 322 325 325 322 324 323 322 321 320 320 320 321 321 321 321 319 316 317 317 317 317 317 317 317 317 317 316 314 315 314 315 315 315 315 314 314 314 315 315 316
322 321 321 323 322 322 324 324 324 323 323 324 324 323 321 322 322 321 322 322 322 322 321 320 320 319 320 321 320 318 318 318 319 319 319 318 318 318 317 317 316 316 316 315 311 311 312 313 313 313 313 312 311 311
322 320 321 321 322 324 325 322 322 321 322 322 322 323 320 320 319 320 321 321 323 323 321 320 319 319 320 319 320 320 319 319 319 319 320 320 320 318 317 316 315 315 315 314 314 314 313 314 314 314 313 312 311 310
321 320 321 322 322 323 324 323 321 321 321 323 322 323 322 320 318 318 320 321 321 322 321 321 320 320 320 320 320 320 319 315 314 314 315 317 318 316 315 315 315 315 315 314 315 315 315 314 314 314 314 314 313 311
322 323 323 324 324 324 324 323 321 320 321 322 322 321 320 321 321 323 322 323 322 321 319 320 321 321 321 320 319 316 312 315 313 312 311 315 318 316 315 315 314 315 315 315 314 314 314 314 314 314 314 314 314 314
322 323 323 323 324 324 324 324 322 321 321 322 322 322 322 323 322 319 318 318 321 322 322 322 320 321 321 319 317 315 313 315 315 311 310 309 309 311 312 314 314 314 314 314 313 314 314 314 314 314 314 314 315 314
Wind_Speed
19 19 20 21 21 21 21 20 20 19 18 17 17 16 14 13 12 9 6 5 5 4 9 9 7 7 4 4 4 4 5 5 4 5 4 5 6 4 6 6 4 8 9 11 11 17 14 3 4 5 5 5 4 4
20 21 21 21 22 22 22 21 20 20 19 18 16 14 13 11 10 6 4 2 4 5 7 10 13 15 15 12 4 2 3 2 3 2 3 2 5 2 7 10 4 6 5 6 4 4 3 1 4 3 3 3 4 4
22 22 23 23 23 23 23 22 22 22 21 19 17 14 12 10 9 4 6 5 5 4 8 8 8 15 22 26 15 3 3 1 2 2 2 1 5 2 6 8 2 4 4 5 2 5 3 3 3 2 3 4 3 4
23 24 24 24 23 23 23 23 23 22 19 17 15 14 13 13 10 6 6 4 6 4 4 2 3 5 4 14 24 20 0 3 1 3 2 2 3 1 2 4 6 5 5 6 5 4 6 5 4 5 7 5 6 7
24 25 25 24 23 23 23 23 22 19 19 19 20 19 17 15 10 8 11 12 12 6 5 6 16 4 6 13 17 22 17 9 4 3 5 4 2 3 0 3 7 6 3 5 3 9 1 10 6 4 7 6 7 8
24 25 25 25 24 24 25 25 23 18 20 25 25 22 18 12 6 4 4 6 13 9 4 4 4 2 3 10 14 13 11 7 5 4 4 2 2 5 6 4 2 4 3 2 2 2 4 10 8 5 5 5 5 6
25 25 25 25 25 25 27 26 21 19 26 28 26 21 14 9 10 5 5 3 12 8 3 4 2 4 4 11 7 7 12 5 6 6 5 7 5 5 4 4 4 6 4 3 7 10 8 7 5 5 4 5 2 3
26 26 26 26 26 27 27 22 18 24 28 28 18 13 3 10 8 6 4 2 12 5 3 4 3 4 6 6 6 5 7 7 7 6 2 6 4 4 5 4 7 7 6 8 6 1 5 8 6 4 4 4 2 5
26 27 26 26 26 26 21 16 22 28 28 16 6 2 3 2 5 3 5 6 8 5 4 3 4 3 2 4 1 5 4 7 3 6 8 3 8 5 4 9 10 10 8 8 7 5 5 5 5 4 4 6 7 9
28 28 28 27 28 25 16 18 26 27 19 8 2 5 4 3 2 7 4 4 5 5 4 5 2 4 3 4 8 4 4 1 3 3 2 5 10 6 3 7 10 9 7 10 9 6 5 5 4 5 6 6 6 7
29 29 30 30 28 19 16 19 26 26 9 3 3 2 4 3 4 3 2 4 4 4 5 4 5 7 3 4 3 0 2 1 3 4 5 4 6 5 7 10 11 10 10 7 3 7 5 5 4 5 6 5 6 7
31 31 32 30 18 15 16 22 22 13 6 6 5 5 4 4 3 4 4 3 5 1 1 3 4 4 2 3 3 4 4 3 4 3 3 5 5 9 11 12 12 10 11 11 11 9 8 6 6 5 5 5 6 7
32 33 33 19 12 16 23 20 22 11 0 2 2 2 1 3 1 4 5 2 2 3 4 5 5 4 3 4 2 2 3 5 3 4 4 2 8 10 12 12 12 12 13 12 11 11 9 8 6 5 4 4 4 7
34 35 27 6 12 23 20 24 13 1 2 3 1 2 3 3 1 3 4 4 2 3 4 4 2 3 2 3 2 3 3 4 5 7 7 5 10 12 11 12 13 13 12 11 10 9 7 6 5 3 2 2 3 6
36 34 4 8 21 22 23 12 3 1 3 2 3 1 1 4 0 3 4 3 1 3 3 2 3 3 2 3 1 0 4 5 2 5 2 5 10 12 12 12 12 12 10 9 8 5 4 3 2 2 1 1 3 4
36 14 3 18 20 22 12 4 1 2 2 2 2 3 5 6 4 3 4 4 1 5 2 4 1 2 2 4 3 7 4 3 3 2 4 8 11 11 10 10 10 9 8 7 5 4 4 3 1 1 2 1 1 3
25 3 16 19 21 16 4 1 2 3 3 3 1 4 5 4 4 4 5 4 5 6 3 3 4 2 3 3 2 5 5 5 3 5 6 10 10 9 9 9 8 8 6 5 5 5 3 2 1 2 2 1 4 3
8 18 21 15 17 10 2 2 2 2 3 1 3 4 5 4 4 5 5 2 3 1 3 1 1 6 3 4 4 1 3 3 1 6 7 7 7 8 8 7 8 8 7 6 5 4 4 3 3 3 2 2 2 1
27 23 13 14 7 4 2 1 3 2 2 3 3 4 3 2 2 4 3 3 6 0 2 2 4 3 3 0 1 1 3 2 5 6 7 8 8 8 7 7 7 6 7 5 5 5 3 1 3 3 1 2 3 5
11 7 13 7 1 3 2 2 2 3 3 3 3 4 3 3 3 4 3 3 2 2 3 3 2 1 2 2 1 1 1 3 3 6 7 6 7 6 5 4 4 4 5 5 6 3 5 5 3 3 4 6 5 7
6 5 10 2 2 3 3 2 2 2 4 3 2 4 1 2 2 3 2 3 1 2 3 2 3 1 1 1 1 2 4 2 4 5 6 6 5 4 4 4 2 2 3 3 3 4 5 2 3 2 4 5 3 2
5 11 3 2 3 1 3 1 4 3 2 4 2 3 3 3 2 2 3 3 2 2 3 4 5 3 2 3 2 3 6 11 11 10 9 5 4 4 3 3 2 2 2 1 4 3 4 3 1 3 6 10 8 5
8 3 2 1 2 0 2 2 3 1 3 5 3 1 2 2 2 3 2 2 1 2 3 3 3 3 2 2 7 10 11 13 9 11 10 10 8 6 6 6 5 3 4 2 2 2 3 1 2 4 4 5 4 2
4 3 3 2 1 2 2 1 1 2 2 3 3 2 3 3 2 2 4 3 4 3 2 0 2 2 3 4 5 8 10 12 11 10 9 13 8 9 9 9 11 11 10 7 6 8 4 4 2 5 3 4 4 3
3 3 1 4 1 2 2 3 3 2 2 4 3 2 3 3 3 4 3 4 6 6 5 3 3 4 5 6 4 8 6 5 6 7 7 6 10 11 11 11 10 9 7 10 6 5 6 3 2 1 1 2 4 5
2 2 3 5 3 3 4 4 4 4 3 3 3 3 2 1 2 4 3 4 5 7 6 5 3 4 5 7 5 4 7 4 3 9 8 6 10 10 6 7 8 9 6 5 6 5 5 3 5 3 2 1 2 7
3 4 2 1 3 3 2 1 2 2 2 3 4 6 4 0 3 3 2 2 3 8 9 8 7 7 5 5 4 5 5 4 7 8 6 4 4 5 7 9 9 7 2 2 3 6 8 7 7 8 9 8 7 7
3 3 5 5 2 2 2 1 2 2 2 3 3 2 2 6 3 2 2 5 5 4 6 8 8 7 6 4 4 4 6 5 5 4 4 5 3 3 3 4 5 7 5 5 4 5 7 9 10 10 9 9 9 8
2 3 3 7 4 2 4 4 5 3 3 3 3 1 0 3 2 3 5 7 3 2 5 6 6 5 5 6 5 5 3 1 1 1 1 2 2 6 4 3 3 2 6 6 8 8 10 11 10 10 9 10 10 9
2 4 3 2 2 3 4 4 4 5 4 3 1 3 1 1 3 5 5 7 4 3 6 4 2 4 3 2 7 4 4 4 5 7 6 5 6 6 4 3 5 4 4 3 3 4 1 1 3 7 9 9 10 10
3 2 2 2 1 2 2 3 2 3 3 3 2 3 2 2 2 3 3 7 4 1 3 3 4 3 3 4 3 2 4 5 5 5 5 5 3 3 4 3 2 3 4 4 4 5 7 7 7 7 6 7 7 8
2 2 3 1 1 1 2 1 2 3 5 6 5 2 1 1 3 1 2 4 1 0 3 1 2 5 3 2 2 3 3 5 6 8 4 2 2 2 5 6 6 7 7 8 9 10 10 11 13 12 13 13 8 8
2 2 3 2 1 1 2 1 2 1 4 7 5 3 3 3 3 2 2 2 2 3 2 4 3 2 2 2 3 2 2 4 5 5 4 3 3 5 7 8 9 10 12 13 13 16 15 13 15 15 14 16 10 10
Wind_Direction
350 342 338 337 337 335 335 334 334 334 334 335 336 336 339 340 347 350 297 264 274 283 288 260 258 255 217 240 263 94 201 198 200 233 241 202 257 186 252 263 261 249 240 242 242 261 240 120 149 240 30 56 36 34
349 344 341 340 338 338 338 337 336 334 333 330 327 327 329 332 340 334 285 289 244 253 295 298 271 265 258 271 307 188 20 347 348 257 242 351 230 221 280 253 170 243 250 309 290 6 46 117 27 66 55 60 35 3
348 346 343 340 336 335 334 335 334 333 332 328 325 320 319 321 323 280 281 278 244 274 269 236 238 248 233 234 235 268 167 38 206 345 331 306 245 296 246 249 268 212 209 246 248 152 124 119 140 100 59 52 10 15
349 346 344 341 338 334 333 332 332 334 334 337 339 329 317 313 305 257 232 249 256 288 283 62 146 221 206 209 216 221 323 165 120 219 257 227 254 296 330 342 286 26 170 233 223 154 140 121 108 105 89 69 52 53
346 345 345 342 339 336 334 331 331 336 338 337 331 321 310 304 294 258 242 236 233 291 323 308 305 283 209 208 202 208 219 226 222 224 228 223 142 217 187 293 248 189 239 231 20 141 276 129 120 97 98 78 43 43
343 342 342 342 339 335 331 329 327 328 331 331 326 316 303 289 259 229 227 209 211 204 278 285 24 202 199 191 191 192 206 214 229 235 223 196 107 201 207 243 155 193 242 303 46 171 114 129 117 103 84 62 49 49
342 342 342 341 337 334 332 330 328 330 331 330 324 309 293 241 191 249 5 81 179 185 255 285 253 127 136 154 164 175 191 207 230 227 240 248 185 210 253 240 131 174 201 153 124 132 136 177 115 76 50 35 38 61
343 342 341 341 338 334 332 334 336 334 334 331 325 334 239 178 200 248 213 206 165 253 255 275 272 206 182 182 164 174 175 202 199 251 229 242 140 228 259 142 157 164 160 155 141 356 89 130 109 73 32 37 87 60
343 342 341 339 337 335 336 340 337 337 337 335 320 58 104 176 198 88 245 222 193 284 297 251 278 128 159 199 147 173 217 221 159 234 230 224 229 211 256 165 174 164 165 161 136 109 106 101 96 80 50 29 27 30
343 342 341 339 335 333 331 335 336 339 341 346 35 231 165 80 86 138 211 183 197 198 233 257 280 257 301 178 191 210 188 190 218 214 119 229 251 89 146 179 168 164 157 144 140 151 145 131 106 76 55 45 30 19
341 341 341 338 333 332 334 334 335 344 5 345 325 5 357 323 197 222 227 229 169 227 201 249 286 271 177 274 224 203 138 156 261 159 240 216 234 145 156 148 149 149 154 163 177 140 122 113 111 96 72 50 39 26
341 340 339 336 332 336 332 331 335 346 334 316 307 300 282 210 198 236 210 188 229 296 132 313 340 293 257 300 272 199 193 160 230 159 229 243 109 130 149 145 146 148 147 133 130 126 122 117 103 89 74 57 41 32
338 338 338 333 336 334 330 331 330 312 150 206 235 239 305 164 339 232 221 191 290 23 23 357 334 302 205 218 238 244 221 212 143 221 234 42 122 147 145 139 139 139 137 133 133 132 132 127 122 110 100 62 45 35
337 335 336 310 331 330 330 330 332 120 213 260 249 351 237 184 329 355 320 318 4 336 354 353 257 276 299 220 224 233 152 221 226 233 221 139 154 154 152 149 145 147 151 146 141 143 137 141 125 120 102 60 18 25
336 336 303 333 335 330 332 332 4 280 272 294 268 275 132 353 187 330 337 308 350 308 345 359 336 276 317 260 265 150 202 223 238 247 36 98 149 151 148 156 153 151 150 152 151 145 134 136 157 137 131 335 3 2
336 341 338 332 328 331 337 348 325 267 244 263 244 286 345 281 297 321 340 297 330 314 297 218 216 51 16 337 276 216 201 205 131 73 88 138 145 144 146 155 155 149 150 139 130 129 130 142 145 113 170 237 305 319
339 276 316 333 331 341 357 329 250 240 286 251 141 359 331 328 323 320 320 347 333 280 248 251 186 129 105 193 301 320 347 20 67 115 126 128 133 138 148 156 156 160 168 171 176 163 164 159 164 206 234 348 323 328
295 306 324 334 336 338 274 267 268 273 254 152 285 345 345 324 333 350 319 294 291 275 273 311 122 197 213 200 187 335 4 319 358 117 114 115 126 132 145 153 162 160 158 160 157 161 178 185 234 229 80 334 268 53
303 309 324 332 319 307 292 199 281 292 322 336 304 327 338 65 46 294 300 264 267 259 297 255 249 224 203 128 325 195 177 268 122 112 105 96 99 104 109 127 138 148 150 158 187 198 159 182 351 36 52 231 119 80
320 308 337 325 323 264 251 189 268 277 307 12 280 347 13 53 326 308 305 332 278 212 203 221 228 302 340 22 335 18 13 276 156 132 113 99 104 113 114 143 141 142 180 192 196 232 176 155 124 126 175 213 176 143
343 313 333 359 242 260 285 296 236 322 311 287 340 332 122 145 351 334 323 334 99 35 355 309 277 83 296 173 94 250 244 239 99 96 118 117 108 104 118 121 196 202 237 219 236 140 228 281 115 157 184 211 224 141
307 330 313 296 277 218 264 233 309 331 268 298 327 8 43 58 129 317 307 12 49 105 293 327 31 23 55 3 46 92 105 102 105 106 106 131 103 91 69 36 262 220 215 216 247 204 240 250 267 244 232 172 208 205
322 308 268 267 286 184 273 284 272 78 295 355 337 346 36 29 60 147 344 46 143 137 212 244 275 268 181 175 130 101 106 103 93 90 89 86 85 76 69 69 68 81 79 78 133 93 149 161 186 183 147 189 159 134
327 301 313 353 350 330 292 282 233 288 287 350 353 24 28 28 18 51 50 46 18 49 147 184 248 148 150 108 101 104 94 102 106 94 83 86 85 79 86 89 81 73 70 70 64 74 73 75 126 143 153 181 177 222
334 359 318 311 206 297 332 4 4 347 27 353 359 52 23 355 17 64 39 25 30 33 19 14 43 56 97 105 104 99 73 50 79 101 89 104 114 105 92 85 78 78 106 93 83 101 111 87 75 95 96 244 254 278
65 53 21 4 17 352 353 353 13 7 7 352 37 4 344 334 42 62 54 8 15 28 25 27 53 91 95 111 103 72 66 58 112 109 109 85 90 82 78 89 99 97 77 78 119 125 127 105 61 13 18 13 244 289
32 28 27 61 303 291 267 262 303 303 9 7 6 358 341 28 79 73 78 52 3 26 45 47 70 91 107 93 64 56 65 86 83 89 103 103 73 41 33 52 57 49 18 11 359 14 9 1 7 6 360 351 350 331
355 334 352 357 346 334 359 40 359 29 4 27 359 310 349 351 61 46 31 7 24 34 56 60 55 52 51 49 48 74 105 114 111 126 147 136 92 77 68 62 49 34 49 42 39 38 17 14 4 6 1 355 353 348
317 3 319 14 19 334 9 15 10 18 359 347 4 110 150 338 29 43 14 355 322 346 30 105 58 38 76 64 80 81 95 99 99 102 358 46 108 95 70 17 27 49 93 87 69 72 69 59 47 37 32 24 13 9
14 3 330 354 336 7 28 6 13 20 8 10 339 131 138 276 334 345 343 5 30 66 98 104 15 19 7 123 79 64 62 28 357 348 326 339 6 12 46 92 102 72 32 16 83 121 66 267 63 30 23 21 17 7
334 296 281 287 46 65 13 347 359 12 7 16 65 54 75 105 20 359 297 317 301 48 109 181 175 195 134 138 150 273 76 35 8 337 314 317 8 84 88 52 24 7 356 338 327 338 351 325 327 322 341 344 354 352
294 312 326 311 117 69 238 262 60 41 56 56 54 42 72 127 92 156 345 312 231 55 131 120 206 95 143 138 98 99 73 40 29 29 32 337 327 317 293 288 291 299 302 303 296 296 298 294 299 306 314 328 323 321
274 294 303 294 262 132 147 174 201 141 69 56 60 34 39 58 74 273 331 16 18 46 5 97 115 112 126 141 129 105 296 322 314 303 293 291 280 290 296 299 300 297 294 290 293 292 294 292 291 286 281 291 311 310